EW9355 Weather Reports


time (UTC)temp
C
wind
direction
speed
KPH
gust
KPH
rain 1hr
cm
rain 24hr
cm
rain mn
cm
humidity
%
barometer
mb
20260509090050 20 199 0.0 11.3 0.00 0.00 0.00 90 1003.8
20260509084524 21 119 0.0 8.0 0.00 0.00 0.00 90 1004.4
20260509083039 21 119 0.0 4.8 0.00 0.00 0.00 89 1005.2
20260509081524 21 165 0.0 1.6 0.00 0.00 0.00 88 1006.0
20260509080014 21 165 0.0 3.2 0.00 0.00 0.00 88 1006.5
20260509074524 21 243 0.0 1.6 0.00 0.08 0.00 88 1007.1
20260509073008 21 243 0.0 4.8 0.00 0.08 0.00 88 1007.4
20260509071508 21 242 0.0 4.8 0.00 0.08 0.00 89 1007.8
20260509070007 21 196 0.0 0.0 0.00 0.08 0.00 88 1007.7
20260509064505 21 196 0.0 0.0 0.00 0.08 0.00 88 1007.3
20260509063003 21 165 0.0 0.0 0.00 0.08 0.00 87 1007.4
20260509061504 21 165 0.0 0.0 0.00 0.08 0.00 87 1007.4
20260509060002 21 165 0.0 0.0 0.00 0.08 0.00 86 1008.0
20260509054600 21 165 0.0 0.0 0.00 0.08 0.00 85 1008.1
20260509053059 21 165 0.0 0.0 0.00 0.08 0.00 85 1008.5
20260509051602 21 165 0.0 0.0 0.00 0.08 0.00 84 1008.0
20260509050100 21 165 0.0 0.0 0.00 0.08 0.00 83 1007.4
20260509044554 22 165 0.0 0.0 0.00 0.08 0.08 82 1007.3
20260509043051 22 165 0.0 0.0 0.00 0.08 0.08 81 1007.2
20260509041552 22 115 0.0 0.0 0.00 0.08 0.08 80 1007.3
20260509040051 22 114 0.0 0.0 0.00 0.08 0.08 80 1008.0
20260509034553 22 114 0.0 0.0 0.00 0.08 0.08 80 1007.8
20260509033104 22 114 0.0 0.0 0.00 0.08 0.08 80 1007.3
20260509031619 22 114 0.0 3.2 0.00 0.08 0.08 80 1007.2
20260509030049 22 114 0.0 0.0 0.00 0.08 0.08 80 1007.1
20260509024557 22 113 0.0 0.0 0.00 0.08 0.08 80 1006.7
20260509023048 22 113 0.0 0.0 0.00 0.08 0.08 79 1006.5
20260509021547 22 113 0.0 0.0 0.00 0.08 0.08 79 1006.2
20260509020048 22 113 0.0 0.0 0.00 0.08 0.08 78 1006.3
20260509014547 22 112 0.0 0.0 0.00 0.08 0.08 78 1006.4
20260509013049 22 109 0.0 0.0 0.00 0.08 0.08 77 1006.3
20260509011548 22 98 0.0 0.0 0.00 0.08 0.08 77 1006.0
20260509010044 22 98 0.0 1.6 0.00 0.08 0.08 77 1005.7
20260509004555 22 98 0.0 1.6 0.00 0.08 0.08 76 1005.6
20260509003046 22 113 0.0 3.2 0.00 0.08 0.08 75 1005.5
20260509001544 23 138 0.0 3.2 0.00 0.08 0.08 74 1005.7
20260509000045 23 138 0.0 3.2 0.00 0.08 0.08 73 1005.9
20260508234539 23 139 0.0 1.6 0.00 0.08 0.08 72 1005.9
20260508233039 23 151 0.0 1.6 0.00 0.08 0.08 71 1006.0
20260508231544 23 109 0.0 4.8 0.00 0.08 0.08 69 1006.2
20260508230037 23 146 0.0 6.4 0.00 0.08 0.08 69 1006.0
20260508224558 23 126 0.0 6.4 0.00 0.08 0.08 69 1006.2
20260508223036 23 124 0.0 4.8 0.00 0.08 0.08 69 1006.0
20260508221544 23 157 0.0 9.7 0.00 0.08 0.08 68 1006.1
20260508220035 23 139 0.0 8.0 0.00 0.08 0.08 68 1006.1
20260508214539 25 250 0.0 4.8 0.00 0.08 0.08 66 1006.2
20260508213036 23 119 0.0 6.4 0.00 0.08 0.08 69 1006.1
20260508211530 23 96 0.0 4.8 0.00 0.08 0.08 70 1006.2
20260508210027 22 128 0.0 3.2 0.00 0.08 0.08 70 1007.0
20260508204524 22 163 0.0 3.2 0.00 0.08 0.08 70 1007.8
20260508203022 23 249 0.0 3.2 0.00 0.08 0.08 69 1008.1
20260508201522 23 135 0.0 6.4 0.00 0.08 0.08 69 1008.2
20260508200035 23 131 0.0 6.4 0.00 0.08 0.08 68 1008.1
20260508194519 24 103 0.0 6.4 0.00 0.08 0.08 67 1008.0
20260508193020 24 144 0.0 4.8 0.00 0.08 0.08 65 1008.3
20260508191516 24 250 0.0 12.9 0.00 0.08 0.08 66 1008.3
20260508190019 23 123 0.0 11.3 0.00 0.08 0.08 66 1008.6
20260508184523 24 130 1.6 14.5 0.00 0.08 0.08 64 1008.6
20260508183014 25 114 1.6 12.9 0.00 0.08 0.08 62 1008.6
20260508181508 24 130 0.0 9.7 0.00 0.08 0.08 65 1009.0
20260508180006 24 151 3.2 12.9 0.00 0.08 0.08 63 1009.3
20260508174502 24 135 0.0 9.7 0.00 0.08 0.08 63 1009.6
20260508173109 24 124 0.0 9.7 0.00 0.08 0.08 63 1009.7
20260508171558 23 141 0.0 4.8 0.00 0.08 0.08 65 1009.8
20260508170052 22 204 0.0 9.7 0.00 0.08 0.08 67 1010.4
20260508164550 22 171 0.0 4.8 0.00 0.08 0.08 66 1010.9
20260508163050 22 146 0.0 9.7 0.00 0.08 0.08 65 1011.2
20260508161548 22 142 4.8 14.5 0.00 0.08 0.08 64 1011.2
20260508160042 21 136 0.0 14.5 0.00 0.08 0.08 67 1011.4
20260508154539 21 124 0.0 11.3 0.00 0.08 0.08 69 1011.6
20260508153035 20 118 1.6 8.0 0.00 0.08 0.08 70 1011.8
20260508151535 19 113 0.0 3.2 0.00 0.08 0.08 70 1012.1
20260508150038 19 174 0.0 4.8 0.00 0.08 0.08 71 1012.2
20260508144540 19 105 1.6 4.8 0.00 0.08 0.08 72 1011.8
20260508143036 19 116 0.0 3.2 0.00 0.08 0.08 73 1012.2
20260508141528 18 122 0.0 6.4 0.00 0.08 0.08 73 1012.2
20260508140034 18 148 0.0 8.0 0.00 0.08 0.08 75 1012.2
20260508134520 17 99 0.0 4.8 0.00 0.08 0.08 80 1012.3
20260508133018 17 144 0.0 6.4 0.00 0.08 0.08 83 1012.0
20260508131515 16 160 0.0 3.2 0.00 0.08 0.08 85 1012.0
20260508130019 16 160 0.0 0.0 0.00 0.08 0.08 87 1012.4
20260508124513 16 160 0.0 0.0 0.00 0.08 0.08 88 1012.4
20260508123013 16 160 0.0 0.0 0.00 0.08 0.08 88 1012.5
20260508121518 16 160 0.0 0.0 0.00 0.08 0.08 88 1012.1
20260508120018 16 160 0.0 0.0 0.00 0.08 0.08 88 1012.3
20260508114526 15 160 0.0 0.0 0.00 0.08 0.08 88 1012.4
20260508113011 15 160 0.0 0.0 0.00 0.08 0.08 89 1012.4
20260508111512 15 160 0.0 0.0 0.00 0.08 0.08 90 1012.3
20260508110009 15 160 0.0 0.0 0.00 0.08 0.08 90 1012.9
20260508104508 15 160 0.0 0.0 0.00 0.08 0.08 90 1012.2
20260508103008 15 160 0.0 0.0 0.00 0.08 0.08 90 1011.9
20260508101508 15 160 0.0 0.0 0.00 0.08 0.08 90 1011.6
20260508100008 15 160 0.0 0.0 0.00 0.08 0.08 90 1011.4
20260508094505 15 160 0.0 0.0 0.00 0.08 0.08 90 1011.6
20260508093012 15 160 0.0 0.0 0.00 0.08 0.08 89 1011.8
20260508091502 16 160 0.0 0.0 0.00 0.08 0.08 89 1011.9